Location: Cactus School
(34.5700°N, 118.0931°W)
Time: 19:10:42
(UTC-08:00)

A-11 Canister half - Pass Details

Date: 20 November 2019
Orbit: 1515 x 1685 km, 47.2° (Epoch: 13 December)

Event Time Altitude Azimuth Distance (km) Brightness Sun altitude
Rises 17:27:20 0° 246° (WSW) 4,854 13.9 -9.0°
Reaches altitude 10° 17:30:28 10° 249° (WSW) 3,888 12.8 -9.6°
Maximum altitude 17:40:26 66° 331° (NNW) 1,800 9.4 -11.6°
Enters shadow 17:49:49 13° 52° (NE) 3,724 10.4 -13.4°
